Location: G�ndlingen
(48.0142°N, 7.6396°E)
Time: 01:42:53
(UTC+00:00)

COSMOS 2455 - Pass Details

Date: 05 July 2020
Orbit: 898 x 911 km, 67.1° (Epoch: 11 August)

Event Time Altitude Azimuth Distance (km) Brightness Sun altitude
Rises 23:26:21 0° 325° (NW) 3,551 6.9 -19.3°
Reaches altitude 10° 23:28:52 10° 326° (NW) 2,607 6.1 -19.3°
Maximum altitude 23:34:57 88° 57° (ENE) 919 2.8 -19.3°
Enters shadow 23:38:24 27° 146° (SE) 1,667 3.8 -19.3°
